Location: Erdweis
(48.5167°N, 15.3500°E)
Time: 11:29:04
(UTC+00:00)

ATLAS CENTAUR R/B - Pass Details

Date: 18 September 2020
Orbit: 479 x 667 km, 64.7° (Epoch: 12 October)

Event Time Altitude Azimuth Distance (km) Brightness Sun altitude
Rises 17:48:24 0° 260° (W) 2,665 6.3 -8.1°
Reaches altitude 10° 17:51:07 10° 279° (W) 1,745 5.6 -8.5°
Maximum altitude 17:53:57 19° 326° (NW) 1,252 3.8 -9.0°
Drops below altitude 10° 17:56:43 10° 13° (NNE) 1,695 3.8 -9.4°
Sets 17:59:19 0° 32° (NNE) 2,562 4.5 -9.8°
